Lincoln, NE

11:04 PM CDT on April 27, 2017 (GMT -0500)
Lincoln Municipal

Weather History for KLNK - May, 2013

Change the Weather History Date:

Thursday, May 16, 2013

  Actual Average Record
Temperature  
Mean Temperature 70 °F 62 °F  
Max Temperature 83 °F 74 °F 92 °F (1944)
Min Temperature 56 °F 51 °F 30 °F (2014)
Degree Days  
Heating Degree Days 0 5  
Month to date heating degree days 166 105  
Since 1 July heating degree days 6287 5998  
Cooling Degree Days 5 2  
Month to date cooling degree days 25 21  
Year to date cooling degree days 29 35  
Growing Degree Days 18 (Base 50)    
Moisture  
Dew Point 57 °F    
Average Humidity 65    
Maximum Humidity 87    
Minimum Humidity 43    
Precipitation  
Precipitation 0.00 in 0.14 in 2.01 in (1952)
Month to date precipitation 1.37 2.22  
Year to date precipitation 8.78 8.27  
Snow  
Snow 0.00 in 0.00 in - ()
Month to date snowfall 2.7 0.1  
Since 1 July snowfall 27.5 26.0  
Snow Depth 0.00 in    
Sea Level Pressure  
Sea Level Pressure 29.81 in    
Wind  
Wind Speed 6 mph (South)    
Max Wind Speed 20 mph    
Max Gust Speed 25 mph    
Visibility 9 miles    
Events      
T = Trace of Precipitation, MM = Missing Value Source: NWS Daily Summary

Daily Weather History Graph

Daily Weather History Graph

Search for Another Location

Airport or City:

Trip Planner

Search our weather history database for the weather conditions in past years. The results will help you decide how hot, cold, wet, or windy it might be!

Date:

Astronomy

May. 16, 2013 Rise Set
Actual Time 6:08 AM CDT 8:38 PM CDT
Civil Twilight 5:37 AM CDT 9:10 PM CDT
Nautical Twilight 4:58 AM CDT 9:49 PM CDT
Astronomical Twilight 4:14 AM CDT 10:33 PM CDT
Moon 11:43 AM CDT (5/16) 12:59 AM CDT (5/16)
Length of Visible Light 15h 33m
Length of Day
14h 30m
Waxing Crescent, 36% of the Moon is Illuminated
May 16
Waxing Crescent
May 17
First Quarter
May 24
Full
May 31
Last Quarter
Jun 8
New

Hourly Weather History & Observations

Time (CDT) Temp. Heat Index Dew Point Humidity Pressure Visibility Wind Dir Wind Speed Gust Speed Precip Events Conditions
12:54 AM 66.9 °F - 46.9 °F 49% 29.83 in 10.0 mi Calm Calm - N/A   Clear
1:54 AM 63.0 °F - 51.1 °F 65% 29.82 in 10.0 mi Calm Calm - N/A   Mostly Cloudy
2:54 AM 62.1 °F - 48.9 °F 62% 29.82 in 10.0 mi Calm Calm - N/A   Clear
3:54 AM 63.0 °F - 51.1 °F 65% 29.83 in 10.0 mi Calm Calm - N/A   Scattered Clouds
4:54 AM 63.0 °F - 52.0 °F 67% 29.83 in 10.0 mi Calm Calm - N/A   Clear
5:54 AM 60.1 °F - 54.0 °F 80% 29.83 in 10.0 mi South 8.1 mph - N/A   Clear
6:54 AM 59.0 °F - 55.0 °F 87% 29.85 in 7.0 mi North 4.6 mph - N/A   Clear
7:54 AM 64.0 °F - 57.0 °F 78% 29.86 in 7.0 mi Calm Calm - N/A   Clear
8:54 AM 69.1 °F - 59.0 °F 70% 29.86 in 7.0 mi Calm Calm - N/A   Clear
9:54 AM 72.0 °F - 61.0 °F 68% 29.84 in 8.0 mi Calm Calm - N/A   Clear
10:54 AM 75.0 °F - 62.1 °F 64% 29.83 in 10.0 mi South 6.9 mph - N/A   Clear
11:54 AM 77.0 °F - 61.0 °F 58% 29.84 in 10.0 mi South 11.5 mph - N/A   Scattered Clouds
12:54 PM 80.1 °F 81.2 °F 62.1 °F 54% 29.81 in 10.0 mi South 12.7 mph - N/A   Scattered Clouds
1:54 PM 80.1 °F 80.9 °F 60.1 °F 50% 29.79 in 10.0 mi SSE 11.5 mph - N/A   Clear
2:54 PM 82.0 °F 81.7 °F 57.0 °F 42% 29.79 in 10.0 mi SSW 11.5 mph 20.7 mph N/A   Partly Cloudy
3:54 PM 82.9 °F 82.4 °F 57.0 °F 41% 29.78 in 10.0 mi SW 15.0 mph - N/A   Partly Cloudy
4:54 PM 80.6 °F 80.8 °F 57.2 °F 45% 29.79 in 10.0 mi South 6.9 mph 17.3 mph N/A   Partly Cloudy
5:54 PM 80.1 °F 80.7 °F 59.0 °F 48% 29.76 in 10.0 mi South 11.5 mph - N/A   Clear
6:54 PM 79.0 °F - 59.0 °F 50% 29.74 in 10.0 mi South 11.5 mph - N/A   Clear
7:54 PM 75.0 °F - 59.0 °F 57% 29.76 in 10.0 mi South 11.5 mph - N/A   Clear
8:54 PM 73.9 °F - 57.9 °F 57% 29.79 in 10.0 mi SSW 4.6 mph - N/A   Clear
9:54 PM 68.0 °F - 57.9 °F 70% 29.80 in 10.0 mi South 5.8 mph - N/A   Clear
10:54 PM 66.9 °F - 59.0 °F 76% 29.81 in 9.0 mi South 5.8 mph - N/A   Clear
11:54 PM 66.0 °F - 59.0 °F 78% 29.81 in 9.0 mi South 5.8 mph - N/A   Clear